Reflectivity
-20 -20 -20 -20 -20 -18 -20 -20 -20 -20 -12 -20 -4 8 4 -5 -10 8 11 4 -20 13 9 -14 -20 -20 -20 -20 -20 -20 -20 -20 -20 -20 -20 -20 -20 -20 -20 -20 -20 -20 -20 -20 -20 -20 -20
-19 -10 -19 -20 -20 -20 -13 -4 -12 -3 -20 -20 -20 1 5 3 -4 9 9 10 -5 12 12 -1 -20 -20 -20 -20 -20 -20 -20 -20 -20 -20 -20 -20 -20 -20 -20 -20 -20 -20 -20 -20 -20 -20 -20
-19 -16 -7 8 7 -20 -20 -20 -20 -19 -11 -20 -20 -12 -19 -20 -20 -13 -14 2 3 2 -17 -3 -4 -20 -20 -20 -20 -20 -20 -20 -20 -20 -20 -20 -20 -20 -20 -20 -20 -20 -20 -20 -20 -20 -20
-17 -17 -20 -20 -1 -12 -20 7 11 7 11 3 1 -1 -20 -20 -20 -20 -20 -20 8 11 -7 -20 -20 -20 -20 -20 -20 -20 -20 -20 -20 -20 -20 -20 -20 -20 -20 -20 -20 -20 -20 -20 -20 -20 -20
13 -6 5 -19 -20 -20 -20 -20 -4 -8 -8 -7 8 6 -20 -20 -20 -20 -20 -20 -18 -12 -20 -20 -20 -20 -20 -20 -20 -20 -20 -20 -20 -20 -20 -20 -20 -20 -20 -20 -16 -20 -20 -20 -20 -20 -20
-20 1 13 10 -9 -20 -20 -20 -20 -20 -13 -20 -20 -4 -15 -20 -20 -20 -20 -20 -20 -20 -20 -20 -20 -20 -20 -20 -20 -20 -20 -20 -20 -20 -20 -20 -20 -20 -20 -17 -20 -20 -20 -20 -20 -20 -20
-20 -20 -13 18 -20 -20 -15 -20 -20 -20 -20 -20 -20 -20 -20 -20 -20 -20 -20 -20 -20 -20 -20 -20 -20 -20 -20 -20 -20 -20 -20 -20 -20 -20 -20 -20 -20 -20 -20 -20 -20 -20 -20 -20 -20 -20 -20
-20 -20 -14 -11 24 7 -20 -20 -20 -20 -20 -20 -20 -20 -20 -20 -20 -20 -20 -20 -20 -20 -20 -20 -20 -20 -20 -20 -20 -20 -20 -20 -20 -20 -20 -20 -20 -20 -20 -20 -20 -20 -20 -20 -20 -20 -17
-20 -20 -20 -20 -20 17 23 7 -9 -20 -20 -20 -20 -20 -20 -20 -20 -20 -20 -20 -20 -20 -20 -20 -20 -20 -20 -20 -20 -20 -20 -20 -20 -20 -20 -20 -20 -20 -20 -20 -20 -20 -20 -20 -20 -20 -20
-15 -20 -20 -0 -20 -20 -20 17 16 -9 -20 -20 -20 -20 -20 -20 -20 -20 -20 -20 -20 -20 -20 -1 -20 -20 -20 -20 -20 -20 -20 -20 -20 -20 -20 -20 -20 -20 -20 -20 -20 -20 -20 -20 -14 7 -19
-19 -2 -20 4 -20 -20 -20 -20 19 25 12 -20 -20 -20 -20 -20 -20 -20 -20 -20 -20 -20 -20 7 -20 -20 -20 -20 -20 -20 -20 -20 -20 -20 -20 -20 -20 -20 -20 -20 -20 -20 -20 -20 -4 -18 7
-20 4 -15 -20 -20 -20 -20 -20 -20 -9 21 4 6 -20 -20 -20 -20 -20 -20 -20 -20 -20 -20 -20 -20 -20 -20 -20 -20 -20 -20 -20 -20 -20 -20 -20 -20 -20 -20 -20 -20 -20 -20 -20 -20 3 6
8 -20 -20 -5 -11 -9 13 -20 -20 -20 -3 20 8 6 -20 -20 -20 -20 -20 -20 -20 -20 -20 -20 -20 -20 -20 -20 -20 -20 -20 -20 -20 -20 -20 -20 -20 -20 -20 -20 -20 -20 3 11 5 15 12
-20 10 -20 -3 7 -16 -2 14 -20 -20 -1 10 14 22 -12 -20 -20 -20 -20 -20 -20 -20 -20 -20 -20 -20 -20 -20 -20 -20 -20 -20 -20 -20 -20 -20 -20 -20 -20 -20 -20 -20 9 16 12 2 -20
9 -20 -6 -18 -7 7 13 18 15 -20 -20 9 16 3 -4 -20 -19 -20 -20 -20 -20 -20 -20 -20 -20 -20 -20 -20 -20 -20 -20 -20 -20 -20 -20 -20 -20 -20 -20 -20 -20 -20 -12 -11 15 -2 2
11 -11 13 -20 -17 12 10 -20 2 -11 -20 -2 -2 -13 16 1 15 8 -14 -20 -20 -20 -20 -20 -20 -20 -20 -20 -20 -20 -20 -20 -20 -20 -20 -20 -20 -20 -20 -20 -20 -20 -20 7 16 11 -8
-20 -20 -20 -20 -12 -20 -8 -8 18 21 -20 7 -18 14 10 -20 -19 16 9 -20 -20 -20 -20 -20 -20 -20 -20 -20 -20 -20 -20 -20 -20 -20 -20 -20 -20 -20 -20 -20 -20 -20 -2 7 21 0 18
-20 -19 -20 -20 -20 -4 4 -10 -13 -18 1 14 -13 -3 11 -20 -9 6 4 -4 4 -20 -20 -20 -20 -20 -20 -20 -20 -20 -20 -20 -20 -20 -20 -20 -20 -20 -20 -20 -20 -20 -20 3 14 5 16
17 -20 4 -14 -15 -17 -8 -5 -1 -19 18 -15 17 14 18 5 17 -7 -20 -17 -17 -20 -20 -20 -20 -20 -20 -20 -20 -20 -20 -20 -20 -20 -20 -20 -20 -20 -20 -20 -20 -20 -20 -20 -10 -7 -10
7 10 11 17 -18 -2 12 3 6 1 6 23 20 12 12 24 14 19 9 -11 3 -18 -20 -19 -20 -20 -20 -20 -20 -20 -20 -20 -20 -20 -20 -20 -20 -20 -20 -20 -20 -20 -20 -20 -15 -9 -20
-20 -15 -15 17 19 12 2 -10 8 18 -20 23 24 14 6 7 8 12 19 -4 -9 -2 -20 -20 -20 -20 -20 -20 -20 -20 -20 -20 -20 -20 -20 -20 -20 -20 -20 -20 -20 -20 -20 -20 -20 -20 -15
-20 -20 -13 -20 14 -2 -20 -20 -20 -6 -7 26 17 33 1 18 0 2 27 24 5 10 7 -3 -20 -20 -20 -20 -20 -20 -20 -20 -20 -20 -20 -20 -20 -20 -20 -20 -20 -20 -20 -20 -20 -20 -20
-20 -20 -16 -20 -15 -20 -20 -20 -20 -20 0 23 19 21 14 -6 17 19 -4 -5 9 9 -17 6 -20 1 -20 -20 -18 -20 -20 -20 -20 -20 -20 -20 -20 -20 -20 -20 -20 -20 -20 -20 -20 -20 -20
8 6 -20 -20 -20 -20 -20 -20 -20 -20 -19 11 11 8 27 -6 -4 -20 -20 -20 6 -6 -0 3 -8 8 -20 17 -13 -20 -20 -20 -20 -20 -20 -20 -20 -20 -20 -20 -20 -20 -20 -20 -20 -20 -20
-20 -20 -15 8 3 -20 -20 -20 -20 -20 -20 -6 3 13 15 16 12 -1 -20 -17 -20 -18 2 -2 -20 -20 -10 -20 5 -20 -20 -20 -20 -20 -20 -20 -20 -20 -20 -20 -20 -20 -20 -20 -20 -20 -20
-20 -20 -20 -20 -20 4 8 -18 -20 -20 -20 -20 1 9 2 11 -20 -12 5 11 6 -8 5 -20 -20 -3 11 -20 24 -6 -20 -20 -20 -20 -20 -20 -20 -20 -20 -20 -20 -20 -20 -20 -20 -20 -20
3 -20 -20 -1 8 -20 -11 10 7 -20 -4 3 10 11 23 7 -20 2 -5 -5 -10 -14 1 -16 -9 8 -14 7 28 4 -20 -20 -20 -20 -20 -20 -20 -20 -20 -20 -20 -20 -20 -20 -20 -20 -20
-20 -4 7 8 7 -13 -20 -20 5 -0 -7 16 6 12 20 6 -20 2 -2 -9 13 14 14 2 22 19 25 31 26 -4 -20 -20 -20 -20 -20 -20 -20 -20 -20 -20 -20 -20 -20 -20 -20 -20 -20
-16 -20 -20 -20 -17 8 -20 -20 -1 0 6 14 14 -18 19 13 9 -14 -20 -20 -20 -16 18 16 -18 6 -14 21 21 -20 -20 -20 -20 -20 -20 -20 -20 -20 -20 -20 -20 -20 -20 -20 -20 -20 -20
Wind_Speed
4 5 5 5 5 7 5 4 3 4 5 7 9 10 9 10 12 12 13 14 13 13 13 13 13 15 8 4 3 3 1 3 5 8 9 10 8 8 7 7 8 12 9 8 13 17 17
5 6 6 5 4 6 7 6 6 5 4 5 8 8 10 10 12 12 12 13 14 13 12 12 11 14 4 4 3 1 1 4 5 7 6 8 7 7 7 8 6 8 13 18 15 16 17
6 7 8 8 6 4 6 6 6 7 6 7 8 9 8 9 12 13 13 13 14 14 14 11 6 5 4 4 1 2 2 3 4 5 5 4 5 6 9 9 6 11 14 14 10 6 13
9 9 7 6 8 4 5 7 7 6 6 8 8 7 8 10 11 13 14 14 14 15 10 4 2 3 3 2 3 4 2 1 1 2 3 3 2 5 4 9 7 8 8 8 4 11 10
12 11 9 8 8 7 5 7 3 6 7 8 7 6 9 11 12 14 15 16 16 8 1 3 4 3 2 3 4 2 3 5 3 2 2 3 5 4 4 7 7 6 10 20 17 7 10
10 11 12 10 9 8 6 6 3 3 8 7 4 7 9 10 14 14 16 15 2 5 5 4 2 4 4 1 2 0 1 3 4 5 6 4 4 6 6 4 7 17 20 20 21 9 22
11 12 12 13 11 11 10 8 8 6 10 4 3 6 8 12 14 15 13 3 5 5 6 6 4 4 1 2 2 3 1 3 5 5 5 2 5 8 9 8 12 16 19 22 22 22 17
11 12 12 11 10 13 13 11 10 10 9 5 4 3 8 12 13 15 7 4 5 4 8 2 5 6 5 2 3 5 2 4 3 8 6 6 11 7 5 9 11 15 19 22 21 13 18
14 12 13 12 11 11 14 13 13 10 6 8 6 2 5 10 13 8 5 5 4 4 6 3 3 3 1 6 3 2 6 1 6 8 7 10 12 11 8 12 14 15 18 21 23 24 21
15 16 14 13 13 11 9 13 14 12 8 10 7 4 2 8 6 3 1 3 4 4 3 7 4 3 5 2 3 2 3 3 3 7 8 10 2 7 11 14 13 12 11 19 23 18 10
15 16 16 14 13 13 8 8 10 14 11 11 9 7 2 3 5 3 4 5 3 5 5 5 5 4 2 5 2 5 1 3 7 9 3 9 7 12 14 9 5 10 16 21 25 20 13
15 16 16 16 15 14 12 10 8 11 14 13 11 8 5 3 2 2 4 4 4 1 9 3 4 4 4 6 4 4 4 3 3 7 10 20 12 10 10 11 12 16 18 23 7 2 6
16 16 14 15 16 15 14 9 6 9 14 14 12 11 6 0 3 1 3 4 3 6 2 4 4 5 5 4 5 6 5 6 6 5 4 11 8 4 7 10 10 4 15 9 4 7 11
16 15 14 12 13 14 14 10 8 8 7 15 11 9 6 4 2 3 4 5 9 3 4 3 2 4 5 4 5 4 5 7 11 11 8 5 6 6 10 7 8 15 5 6 10 14 22
18 14 12 9 13 13 12 10 9 8 6 15 13 3 3 3 4 3 6 7 5 4 2 5 3 5 6 4 4 4 7 6 2 11 5 6 6 6 11 9 3 3 5 10 11 18 16
2 7 7 9 12 12 11 10 9 7 7 19 5 3 3 6 4 3 6 12 9 2 2 3 6 7 6 6 5 4 3 5 3 9 7 4 11 5 3 6 11 13 9 6 4 9 16
7 5 6 8 12 9 6 4 5 4 4 17 3 2 1 11 5 2 7 10 11 6 5 6 7 7 7 7 9 6 6 4 5 5 7 7 6 6 12 5 14 7 7 6 4 6 7
9 6 5 6 4 3 3 3 4 3 12 9 3 4 5 8 5 4 7 5 1 9 8 8 5 10 14 7 8 7 9 6 5 6 5 6 7 12 18 20 5 7 12 11 5 9 12
13 10 8 7 4 4 4 2 3 3 15 5 3 1 3 3 7 10 5 11 12 9 9 7 8 10 4 9 8 13 7 2 8 7 4 4 6 9 11 5 4 6 10 13 14 11 19
11 10 9 10 8 7 4 6 6 5 12 5 4 4 4 5 4 8 12 14 10 9 16 15 12 10 7 9 11 9 6 4 7 11 2 1 8 12 12 19 18 22 22 17 15 10 17
9 11 10 9 10 10 10 7 4 4 5 6 4 3 4 5 9 10 4 3 14 7 12 7 11 16 12 12 15 18 17 17 10 6 6 6 9 13 20 22 22 23 22 20 16 19 19
9 8 9 11 10 12 11 11 9 10 2 4 2 3 4 3 8 10 11 6 14 13 6 10 20 16 18 23 20 14 9 8 8 8 9 6 8 11 17 17 11 17 20 19 18 18 17
6 7 8 7 8 9 10 10 10 12 2 3 3 3 3 3 6 7 10 7 12 20 19 21 22 14 20 21 20 21 15 12 10 8 9 6 5 6 8 10 18 12 2 7 12 13 10
8 6 5 7 8 7 8 9 9 9 5 1 2 3 5 9 13 16 21 21 20 18 21 14 16 19 21 10 14 10 13 13 14 14 12 8 7 5 8 12 4 5 9 4 10 16 10
8 9 10 9 5 4 6 7 9 9 8 5 2 2 2 6 10 18 24 24 25 25 24 23 25 23 7 7 12 13 8 7 12 12 14 13 9 5 5 6 15 6 3 3 4 10 3
8 8 9 9 10 10 8 8 8 10 11 7 5 3 4 6 15 22 20 21 18 19 21 26 22 15 9 4 12 19 15 11 6 6 2 10 11 7 3 4 5 6 3 2 2 4 6
12 11 11 11 10 10 11 12 10 11 11 8 6 8 6 7 19 19 18 17 17 20 15 14 18 6 7 6 8 14 15 3 8 10 9 7 8 14 10 6 9 6 4 2 5 5 9
14 13 14 14 13 12 12 13 15 14 14 9 7 9 8 8 21 22 25 17 12 12 13 7 5 7 6 8 11 11 13 10 8 7 10 12 11 7 7 7 9 5 4 4 10 13 11
15 16 16 17 17 14 13 15 17 16 17 13 8 8 9 9 12 17 24 30 30 27 14 4 5 4 8 8 11 9 10 4 11 7 8 8 5 6 10 7 3 5 2 7 7 10 8
Wind_Direction
327 321 318 314 328 324 323 306 327 304 328 331 326 326 334 344 332 334 331 324 327 328 331 331 339 336 312 244 89 108 142 354 347 352 8 355 356 343 337 327 312 251 287 299 290 291 286
263 272 275 287 298 317 315 308 319 310 312 311 316 326 327 332 326 330 325 322 320 323 322 320 331 319 287 267 93 64 342 322 1 346 2 5 357 337 289 294 289 332 298 295 293 287 289
261 270 266 255 265 298 308 311 307 311 306 313 314 320 332 336 328 322 319 317 318 317 310 299 310 311 272 27 47 3 277 347 342 347 335 11 333 304 336 296 343 291 296 297 265 289 291
273 271 272 300 232 252 290 297 282 293 304 307 313 326 332 333 327 321 319 314 314 314 311 286 244 266 314 100 330 269 266 280 324 320 313 333 303 289 266 321 280 285 272 304 354 249 297
274 279 270 268 227 229 263 299 308 311 317 313 319 330 333 329 328 323 319 311 305 292 313 175 231 270 128 136 230 67 304 304 311 254 280 266 277 299 274 304 308 210 296 308 311 213 290
350 336 269 259 234 233 245 266 281 299 288 299 304 323 334 329 328 323 318 307 307 230 214 213 264 246 174 118 124 115 336 279 282 284 246 245 258 273 251 285 307 310 307 303 299 316 303
335 339 352 290 243 237 231 243 247 234 263 266 266 317 328 330 326 325 322 249 219 187 211 282 341 314 253 97 203 186 194 248 257 247 291 54 294 290 297 316 299 299 295 296 295 293 294
321 330 323 306 309 244 235 230 242 256 269 219 205 302 326 328 325 323 290 337 29 343 302 202 264 266 253 300 271 195 213 255 252 285 311 252 282 338 314 289 288 290 297 289 291 306 299
298 301 317 320 318 336 247 236 238 238 239 196 204 261 313 325 323 289 346 34 341 304 267 243 229 245 128 196 267 144 201 299 283 288 274 271 280 322 276 295 297 292 286 294 302 312 309
301 292 289 307 311 301 343 253 232 241 217 197 203 214 302 329 281 355 77 10 327 316 308 272 194 142 166 224 232 79 206 298 247 302 316 278 294 290 294 291 296 292 266 310 303 306 304
289 292 290 286 304 304 308 297 283 227 210 203 199 189 147 350 329 258 18 328 318 246 317 211 146 101 165 243 13 145 148 207 266 279 295 268 292 302 295 284 303 270 303 304 293 282 293
288 284 278 285 290 299 293 285 312 251 221 200 188 185 148 199 233 322 312 301 257 335 249 177 138 178 212 197 198 121 208 228 306 284 248 262 278 282 250 302 279 286 297 298 290 251 247
278 269 278 276 279 294 290 272 290 318 223 193 188 177 197 301 348 343 283 243 275 226 79 183 195 193 233 201 210 201 206 216 245 297 297 311 269 231 240 283 309 270 315 303 264 250 277
280 273 263 268 276 283 302 272 275 280 256 185 177 169 212 247 267 252 237 235 237 251 229 82 150 180 231 172 201 215 266 267 214 245 293 306 313 206 171 268 298 302 300 290 301 309 300
265 257 261 266 276 276 295 288 277 284 278 179 150 187 253 216 209 235 240 226 236 227 38 171 160 231 201 203 247 232 231 276 280 200 222 305 262 232 254 285 245 1 253 293 282 274 276
313 246 263 262 273 276 291 298 283 278 293 151 141 146 237 140 121 265 235 234 246 317 313 239 238 191 262 186 220 211 250 153 226 209 245 320 296 293 297 255 242 225 337 297 269 302 311
10 352 311 303 282 269 296 308 290 278 177 158 104 200 140 147 130 228 232 218 263 243 257 243 281 264 247 278 241 258 274 181 207 179 219 281 252 276 294 252 301 265 252 222 262 264 294
350 343 337 299 314 262 317 334 317 297 156 156 137 219 173 154 181 202 227 251 348 249 230 264 286 280 277 258 254 260 253 225 173 173 220 214 290 288 286 288 305 265 273 287 287 300 294
20 19 13 20 342 283 275 296 328 299 164 144 217 205 189 200 231 212 273 254 260 233 227 215 245 231 255 255 260 233 251 298 199 214 259 154 237 299 301 164 166 237 270 281 279 277 272
14 18 16 10 24 27 311 270 265 297 217 211 186 211 153 215 277 272 233 237 236 215 252 250 259 255 229 236 238 273 256 254 218 227 102 272 251 250 268 289 305 297 297 295 287 270 280
357 13 10 21 25 32 24 7 287 257 351 209 220 244 190 217 217 250 231 244 241 231 229 261 258 232 223 251 247 252 257 258 223 209 201 241 265 267 273 284 289 285 286 290 276 266 268
346 351 7 27 29 33 26 29 12 342 292 224 247 183 182 319 241 224 220 231 249 236 224 235 238 254 237 246 248 275 241 240 241 175 201 221 265 299 288 280 273 284 281 276 272 274 277
356 346 340 337 8 11 13 11 18 20 331 249 239 236 202 223 248 222 226 252 260 251 257 253 262 261 262 266 273 276 291 273 276 224 210 221 259 300 269 328 306 279 258 268 283 288 286
343 338 340 334 339 351 352 347 353 349 5 156 350 321 262 251 235 250 256 261 256 235 244 254 262 261 263 310 309 275 267 256 254 240 241 234 242 257 282 308 256 38 302 263 275 285 268
324 332 333 331 330 333 327 325 322 320 317 296 284 263 272 278 273 266 270 263 261 259 247 252 252 247 281 288 270 261 227 244 233 229 226 227 226 263 266 294 284 271 177 305 320 300 143
295 306 311 316 321 321 306 297 302 306 307 293 273 237 269 282 250 258 269 267 263 255 252 253 242 249 221 213 247 242 238 232 183 172 197 207 226 225 193 266 273 39 126 323 250 247 351
286 282 288 292 298 305 307 300 283 287 290 287 276 258 256 268 265 253 251 265 263 248 254 266 238 177 217 200 239 232 233 250 205 183 166 169 196 218 231 259 278 291 59 145 264 30 347
275 283 287 284 285 289 293 296 294 286 284 281 278 264 241 257 270 264 263 255 251 224 216 170 197 187 168 212 219 220 234 215 237 168 170 175 170 190 198 219 264 162 139 257 340 314 314
283 281 278 278 279 274 279 286 287 286 279 280 276 264 248 244 274 293 260 244 244 235 231 203 223 184 206 197 220 206 235 217 229 218 189 210 222 185 201 215 124 167 287 307 317 311 314